User: anonymous   Login
Location: Fontevrault
(47.1823°N, 0.0493°E)
Time: 21:52:50
(UTC+00:00)
Language:

FENGYUN 1C DEB - Orbit

View from above orbital plane
View from above orbital plane
View from above satellite
View from above satellite

Ground track
Ground track

The orbit data is extracted from the following two-line orbital elements,

1 33664U 99025DEZ 22028.27610744  .00000546  00000-0  34508-3 0  9990
2 33664  98.6288 232.7398 0166045  47.6452 313.8639 14.01319501709137
Epoch (UTC): 28 January 2022 06:37:35
Eccentricity: 0.0166045
inclination: 98.6288°
perigee height: 768 km
apogee height: 1010 km
right ascension of ascending node: 232.7398°
argument of perigee: 47.6452°
revolutions per day: 14.01319501
mean anomaly at epoch: 313.8639°
orbit number at epoch: 70913

The dashed part of the orbit path shows where the satellite is in the earth's shadow,  

DLR